Theta_e
318 315 315 315 313 313 314 314 312 310 310 310 309 309 310 311 311 311 311 310 309 310
317 315 314 315 315 315 314 311 310 310 309 308 308 308 309 309 308 305 307 304 304 305
315 315 314 314 313 312 312 311 309 310 309 307 307 307 307 307 306 302 304 303 302 303
312 311 312 311 312 312 310 309 308 308 308 307 306 306 305 305 305 303 302 303 303 303
310 310 309 310 311 311 310 310 309 308 306 306 306 305 304 302 302 302 301 301 302 301
308 307 307 308 308 307 308 308 308 306 306 306 305 304 304 302 302 300 299 301 301 299
306 305 306 305 305 306 305 306 306 306 305 305 306 305 302 301 300 300 300 300 297 297
305 304 303 304 304 305 305 305 306 306 304 303 303 302 301 300 298 299 299 297 296 295
302 302 303 303 303 304 304 304 305 305 303 302 300 297 296 297 297 298 296 294 294 294
302 302 302 302 302 302 302 303 303 304 302 300 300 295 295 293 296 295 295 293 291 291
301 300 300 301 300 301 301 301 300 301 302 300 298 293 294 292 295 294 293 292 291 292
299 299 299 298 299 300 299 300 300 300 300 299 298 292 292 292 292 292 291 291 291 292
298 298 298 299 298 298 296 295 293 292 295 295 298 293 292 291 293 290 289 289 290 290
297 298 299 299 299 297 293 291 289 290 291 291 292 294 292 291 292 290 289 288 287 289
Wind_Speed
8 5 5 6 6 6 6 6 5 6 7 8 8 8 7 6 6 7 7 10 8 7
5 5 6 7 6 6 7 6 7 8 9 9 8 9 8 7 8 7 7 7 8 7
5 6 6 5 8 8 8 8 9 9 9 9 9 8 8 8 8 8 6 6 7 8
4 3 3 5 6 7 7 7 8 8 8 10 10 9 9 10 9 10 9 9 9 10
3 4 3 4 6 7 9 9 10 9 9 10 11 11 12 12 10 11 10 9 9 10
4 2 2 5 6 7 9 11 11 11 12 12 12 12 13 11 10 10 9 10 10 8
3 2 3 4 6 8 9 10 11 10 12 12 11 12 10 9 10 11 10 10 8 6
2 1 4 6 7 9 9 10 10 10 8 8 8 8 10 9 8 9 10 8 7 5
0 3 5 6 8 9 10 11 11 11 11 9 7 9 12 9 6 10 9 7 6 4
1 5 6 8 10 11 13 12 12 10 8 9 9 10 13 15 7 7 8 6 5 4
3 5 7 9 11 12 12 13 11 9 7 7 6 10 12 12 8 7 7 7 6 5
3 6 7 9 10 11 11 11 10 5 5 5 6 8 10 9 7 7 7 7 6 7
4 5 6 7 9 7 7 6 4 5 4 6 8 6 10 10 5 7 5 6 6 10
5 6 5 5 5 5 4 4 3 5 4 4 5 6 9 12 6 6 6 6 6 4
Wind_Direction
187 199 216 225 228 243 250 257 243 239 242 243 234 231 233 242 242 242 245 248 248 256
212 219 236 242 248 258 256 258 252 240 241 241 239 237 232 241 245 238 241 246 250 249
223 227 245 254 258 252 266 256 246 244 240 243 236 233 229 238 235 235 241 241 238 245
226 236 255 251 262 263 271 285 279 272 260 245 241 232 229 231 230 226 234 235 242 254
163 172 208 264 277 295 292 279 267 260 252 246 241 232 224 224 223 228 229 241 248 244
150 111 359 315 317 294 292 284 279 263 248 239 232 232 227 227 231 221 220 230 234 245
148 171 261 279 287 295 298 292 290 273 268 256 239 237 231 218 231 227 226 222 211 223
188 286 286 309 318 311 302 295 288 276 258 245 242 236 228 211 206 232 231 211 202 217
42 311 303 304 313 303 297 298 295 278 262 246 235 235 224 213 206 220 214 202 199 213
253 297 299 309 305 299 301 299 285 274 247 247 243 220 213 206 209 207 209 181 182 209
286 296 302 303 299 298 299 295 285 276 265 256 245 218 219 200 208 201 194 173 186 185
286 287 302 303 310 313 312 307 299 295 298 267 260 231 227 206 187 201 190 169 186 182
247 262 290 314 314 314 323 313 330 320 308 284 276 246 221 192 186 187 182 169 188 202
279 268 280 301 306 313 324 306 326 313 312 319 306 284 239 203 192 189 178 173 182 190